Wind_Speed
9 10 10 10 11 12 11 10 10 10 10 11 11 10 10 10 10 10 10 10 10 9 9 8 8 8 8 8 8 8 7 7 7 6 6 6 6 7 7 7 8 8 8
9 10 10 11 11 11 11 10 10 10 10 10 11 11 10 10 10 10 10 9 9 10 10 9 9 9 9 9 9 8 8 8 7 7 7 7 8 8 8 9 9 9 9
9 9 10 11 11 11 11 10 10 10 11 11 11 11 11 11 11 11 11 10 10 10 10 10 9 9 9 9 9 9 8 8 8 8 8 8 9 9 10 10 10 11 11
9 9 10 10 10 10 10 11 11 11 12 12 11 11 11 12 12 12 11 11 11 11 11 11 11 10 10 9 10 9 9 9 9 9 10 11 11 11 12 11 11 12 12
10 10 10 11 11 10 10 10 11 11 12 13 12 12 12 13 13 13 12 12 12 12 12 12 12 11 11 11 11 10 10 10 10 11 11 12 12 13 13 13 13 14 14
10 11 11 11 11 11 11 10 11 11 12 13 13 13 13 13 14 14 13 12 13 13 13 13 12 12 12 12 12 12 11 12 12 12 12 13 13 13 14 15 15 15 16
11 12 12 12 12 12 11 11 11 12 12 13 13 14 14 14 14 14 14 14 14 14 14 14 14 13 13 13 13 13 13 13 13 13 14 15 15 15 16 16 16 17 17
12 13 13 13 13 13 12 12 12 12 13 13 13 14 14 14 14 15 15 15 15 15 15 15 14 14 14 14 14 14 15 14 15 15 16 17 17 17 18 18 19 19 19
13 13 13 13 14 14 14 13 13 13 14 14 14 15 15 16 16 16 17 17 17 17 17 16 15 15 15 15 16 16 16 16 17 17 18 18 19 20 20 21 21 21 21
13 14 14 14 14 15 15 15 15 15 15 15 16 16 17 17 17 18 18 18 18 18 17 17 17 17 17 17 17 18 18 18 18 19 19 20 20 21 22 22 22 23 23
13 14 14 14 14 15 16 16 15 16 16 17 17 17 18 19 18 19 19 19 19 19 18 18 19 19 19 19 19 19 19 20 20 20 21 21 22 23 23 24 24 24 24
16 16 15 15 15 16 17 17 17 17 17 18 18 18 19 20 20 20 21 20 20 20 20 20 20 21 21 20 20 21 21 21 21 22 22 23 24 24 25 25 25 25 25
17 17 16 17 17 17 17 17 18 19 19 19 19 20 20 21 21 22 21 21 21 21 21 21 22 22 21 21 22 23 23 23 23 24 24 24 25 25 26 26 26 27 27
18 18 18 18 18 18 18 18 19 20 20 20 21 21 21 22 23 23 23 23 23 23 23 23 23 22 22 23 24 25 25 25 26 26 26 27 27 27 27 27 28 28 28
19 19 19 19 19 19 19 20 21 21 22 22 22 23 23 24 24 25 24 25 25 25 25 25 25 24 25 26 26 27 27 27 28 28 28 28 28 28 29 29 29 29 29
21 21 21 21 20 20 21 22 22 23 23 23 24 25 25 25 26 26 26 26 27 27 27 26 26 26 27 28 29 29 29 29 29 29 29 30 29 30 30 30 30 31 30
23 22 22 22 22 22 23 23 24 24 25 25 26 26 26 27 27 27 27 28 28 28 27 28 28 29 29 30 31 31 30 29 29 30 30 30 30 30 31 31 32 31 31
24 24 23 23 24 24 25 25 27 27 27 28 28 29 28 28 28 28 29 29 29 28 28 29 30 30 30 31 31 31 31 30 31 31 31 31 31 31 31 31 31 31 31
26 26 25 26 26 26 27 27 28 28 28 29 29 29 29 29 29 30 30 30 29 29 29 29 30 30 31 30 30 30 31 31 32 32 32 32 32 31 31 31 31 31 31
26 26 26 26 26 27 28 28 29 29 29 29 30 30 29 29 29 29 30 31 31 31 31 31 31 30 30 30 30 31 31 32 32 33 33 33 32 32 31 31 31 31 31
26 26 26 26 27 28 29 30 30 31 30 31 30 30 30 29 29 30 30 31 31 31 31 30 30 30 30 31 31 32 32 33 32 32 32 32 32 31 31 31 30 30 29
27 27 27 28 29 30 30 30 31 31 31 31 30 30 30 30 31 31 31 31 31 31 30 31 31 31 31 31 31 32 33 33 32 32 32 31 31 30 29 29 29 29 28
29 28 29 29 30 30 30 31 32 31 31 31 31 32 32 32 32 33 33 32 32 32 31 31 31 31 31 31 32 32 32 32 32 31 31 31 30 29 29 30 29 29 28
31 30 30 31 31 32 32 32 33 32 32 32 32 33 33 34 34 34 34 33 33 33 32 31 31 32 32 32 32 32 32 32 32 31 30 30 30 29 28 28 28 27 26
31 32 32 33 33 33 33 34 34 34 33 34 34 34 34 34 35 35 35 34 34 33 31 32 32 32 33 32 32 32 32 32 32 31 30 29 29 29 28 28 27 27 26
32 33 34 34 34 34 35 35 34 34 34 34 34 35 35 35 35 35 34 34 33 32 31 31 31 32 32 32 31 31 32 32 31 30 29 29 29 28 28 28 28 27 26
Wind_Direction
8 10 9 9 11 12 11 11 15 19 19 18 16 18 18 16 16 16 19 17 15 13 10 7 4 2 359 356 348 340 331 328 327 330 334 332 337 338 339 334 326 319 319
3 4 5 3 6 10 12 14 15 17 16 14 12 11 11 10 9 6 6 6 6 4 359 357 354 353 350 349 347 342 336 332 332 331 329 331 328 331 328 328 327 325 321
356 354 357 359 2 5 6 7 10 10 9 7 4 3 2 0 358 359 358 357 356 355 352 350 346 342 342 345 343 338 332 329 328 326 323 321 322 323 321 322 321 320 316
352 352 353 353 356 357 359 2 5 4 2 1 359 356 354 354 352 353 352 350 348 348 346 345 342 337 335 333 331 333 332 329 325 319 316 313 313 316 319 315 315 316 316
340 342 345 345 346 348 350 354 355 353 352 354 353 350 348 348 348 346 345 346 344 342 339 337 337 333 331 328 325 326 325 325 320 315 314 314 311 311 312 311 310 311 309
327 329 333 335 336 337 339 341 343 343 342 344 347 348 346 344 345 343 340 339 338 338 336 332 329 328 328 327 326 324 319 317 317 314 312 312 308 308 308 308 307 306 304
321 324 326 325 325 327 328 330 331 333 336 337 339 340 340 339 339 339 337 334 332 333 332 332 329 323 322 322 322 319 314 313 313 313 312 310 306 305 306 307 304 303 302
314 319 322 320 319 319 321 322 324 327 329 330 330 331 331 330 330 331 331 329 327 326 325 325 326 326 321 318 317 315 314 312 310 311 311 309 306 305 305 306 303 303 301
309 314 317 315 314 315 316 316 317 319 321 323 324 323 323 323 323 323 323 324 323 321 321 320 319 319 318 317 315 313 312 310 309 308 308 309 306 303 302 303 302 301 300
307 313 315 314 312 312 314 314 314 313 314 316 319 320 319 318 318 318 319 319 319 318 317 316 315 314 313 314 313 311 309 309 307 306 306 307 306 304 302 302 302 301 299
303 307 311 313 311 309 309 312 311 311 311 311 313 314 316 315 314 316 316 315 315 316 315 314 313 311 310 310 311 311 308 307 305 304 303 303 303 303 303 302 301 300 300
300 303 307 309 308 306 306 308 308 309 310 309 309 310 312 311 310 311 312 311 311 312 311 310 310 309 307 307 308 307 306 306 305 303 303 303 301 301 301 301 300 299 300
296 300 301 303 303 304 304 304 304 305 305 305 306 307 308 308 307 307 306 304 306 307 307 307 308 308 305 304 304 305 305 304 304 303 302 302 301 300 300 301 301 300 299
294 295 299 300 300 302 302 302 302 302 303 303 304 304 305 305 303 302 301 301 302 303 303 304 304 304 302 302 303 304 304 304 304 304 302 301 301 301 300 301 301 300 299
291 295 297 299 300 300 300 300 300 300 301 301 301 302 303 302 301 301 301 300 301 302 302 302 303 302 302 301 301 302 302 303 303 303 302 301 300 300 301 300 300 300 298
290 292 296 297 298 299 299 299 300 300 300 300 299 299 299 300 299 300 301 301 301 302 302 303 302 301 300 300 300 299 299 301 301 301 300 300 298 299 299 300 300 299 298
295 294 295 294 294 296 297 298 299 299 299 298 297 297 297 298 299 299 299 300 300 300 300 301 301 300 300 301 300 300 299 300 300 300 299 298 298 298 298 298 299 300 298
293 293 294 293 293 294 295 296 297 298 297 298 298 297 297 298 298 298 298 298 299 300 300 299 299 299 299 300 302 301 300 300 300 300 299 298 297 297 298 299 299 299 298
292 292 292 291 291 292 293 294 296 296 296 296 297 297 298 299 299 299 299 299 299 300 299 300 300 300 300 301 302 301 301 301 301 302 301 300 299 299 299 300 300 299 298
291 290 290 291 291 291 292 294 294 294 294 295 296 296 297 297 298 299 299 300 299 299 300 300 300 300 301 301 302 302 301 302 302 302 302 302 301 301 301 300 300 299 297
290 290 291 290 291 291 292 293 294 294 294 294 295 295 295 297 298 298 299 299 299 299 300 300 299 300 300 300 301 301 300 300 301 301 301 301 302 302 301 301 301 301 299
290 291 291 291 291 292 293 294 295 295 294 293 293 294 296 297 298 298 299 299 299 300 300 300 300 300 300 300 299 299 299 299 300 300 301 302 302 301 301 302 303 303 302
291 292 294 296 294 295 296 296 296 295 293 293 293 294 294 296 296 297 297 298 298 298 299 300 300 300 300 300 299 299 299 298 298 299 300 301 302 301 301 302 303 303 302
289 290 293 294 295 295 295 295 295 294 293 292 292 293 294 295 295 296 297 297 297 297 297 297 298 298 299 300 299 299 299 298 298 298 299 300 300 300 301 303 303 304 304
289 290 292 293 293 294 295 295 294 292 291 291 291 293 294 295 295 295 295 296 297 297 296 296 296 297 297 297 297 298 298 298 298 298 298 299 298 298 299 301 302 302 302
289 291 293 293 293 294 295 295 293 292 290 290 291 292 294 295 295 295 294 294 296 297 297 297 296 296 296 295 295 297 298 299 300 300 299 299 299 298 298 299 300 301 303
Height
5906 5904 5902 5901 5900 5898 5897 5896 5894 5893 5892 5891 5890 5889 5887 5886 5885 5884 5882 5881 5880 5879 5878 5876 5875 5874 5873 5872 5871 5870 5869 5869 5868 5867 5867 5866 5865 5864 5863 5863 5862 5861 5860
5906 5905 5903 5902 5901 5899 5898 5896 5895 5894 5893 5892 5891 5890 5888 5887 5886 5885 5883 5882 5880 5879 5878 5877 5875 5874 5873 5872 5871 5870 5869 5868 5867 5867 5866 5865 5865 5863 5862 5862 5861 5859 5858
5907 5905 5904 5903 5901 5900 5899 5897 5896 5895 5894 5893 5891 5890 5889 5888 5886 5885 5884 5882 5881 5879 5878 5876 5875 5874 5873 5872 5871 5869 5868 5868 5867 5866 5865 5864 5863 5862 5861 5860 5859 5857 5856
5907 5906 5904 5903 5902 5901 5899 5898 5897 5896 5895 5893 5892 5890 5889 5888 5886 5885 5884 5882 5880 5879 5878 5876 5875 5874 5873 5871 5870 5869 5868 5867 5866 5864 5863 5862 5861 5860 5860 5858 5857 5856 5854
5907 5906 5905 5903 5902 5901 5899 5898 5897 5896 5895 5893 5892 5890 5889 5888 5886 5885 5883 5882 5880 5878 5877 5876 5874 5873 5872 5870 5869 5868 5867 5865 5864 5863 5862 5860 5859 5858 5857 5856 5854 5853 5851
5906 5905 5904 5903 5901 5900 5899 5898 5897 5896 5895 5893 5891 5890 5889 5887 5886 5884 5883 5881 5880 5878 5876 5875 5873 5872 5870 5869 5868 5866 5865 5864 5862 5861 5859 5858 5857 5855 5854 5853 5851 5849 5848
5906 5904 5903 5902 5901 5899 5898 5897 5896 5895 5894 5892 5891 5889 5888 5886 5885 5883 5882 5880 5879 5877 5875 5873 5872 5870 5869 5867 5866 5864 5863 5862 5860 5859 5857 5855 5854 5852 5850 5849 5848 5846 5844
5904 5903 5902 5900 5899 5898 5897 5896 5895 5894 5892 5891 5890 5888 5887 5885 5884 5882 5880 5879 5877 5876 5874 5872 5870 5869 5867 5865 5863 5862 5860 5859 5857 5856 5854 5852 5850 5848 5847 5845 5843 5842 5840
5903 5902 5900 5899 5897 5896 5895 5894 5893 5892 5890 5889 5888 5886 5885 5883 5882 5880 5878 5877 5875 5873 5872 5870 5868 5866 5864 5863 5861 5859 5857 5856 5854 5852 5850 5848 5846 5845 5842 5840 5839 5837 5835
5900 5899 5898 5897 5895 5894 5893 5892 5890 5889 5888 5887 5886 5884 5882 5881 5879 5878 5876 5874 5872 5870 5869 5867 5865 5863 5862 5860 5858 5856 5854 5852 5850 5848 5846 5844 5842 5840 5838 5835 5833 5831 5829
5898 5897 5896 5895 5893 5892 5890 5889 5888 5887 5885 5884 5882 5881 5880 5878 5876 5875 5873 5871 5869 5867 5865 5864 5862 5860 5858 5856 5854 5852 5850 5848 5846 5844 5842 5839 5837 5835 5832 5830 5828 5825 5823
5896 5895 5893 5892 5891 5889 5888 5886 5885 5884 5882 5881 5879 5878 5876 5875 5873 5871 5869 5867 5865 5864 5862 5860 5858 5856 5854 5852 5850 5848 5846 5843 5841 5839 5837 5834 5832 5829 5827 5824 5822 5819 5817
5892 5892 5891 5890 5888 5887 5885 5884 5882 5881 5879 5878 5876 5874 5873 5871 5869 5867 5865 5863 5861 5860 5858 5856 5854 5851 5849 5848 5846 5844 5841 5838 5836 5834 5831 5828 5826 5823 5821 5818 5816 5813 5811
5889 5888 5887 5886 5885 5883 5882 5880 5879 5877 5875 5874 5872 5870 5869 5867 5865 5863 5861 5859 5857 5855 5853 5851 5849 5847 5844 5842 5840 5838 5835 5833 5830 5828 5825 5822 5820 5817 5814 5812 5809 5806 5804
5885 5884 5884 5882 5881 5879 5878 5876 5875 5873 5872 5870 5868 5866 5864 5862 5860 5858 5856 5854 5852 5849 5847 5845 5843 5841 5839 5836 5834 5831 5829 5826 5824 5821 5818 5815 5813 5810 5807 5805 5802 5799 5796
5881 5880 5879 5877 5876 5875 5874 5872 5870 5869 5867 5865 5863 5861 5859 5857 5855 5852 5850 5848 5846 5844 5841 5839 5837 5834 5832 5829 5827 5824 5822 5819 5817 5814 5811 5808 5805 5802 5800 5797 5794 5791 5789
5877 5876 5874 5873 5871 5870 5869 5867 5865 5863 5862 5859 5857 5855 5853 5851 5849 5847 5844 5842 5839 5837 5835 5832 5830 5827 5825 5822 5819 5816 5814 5812 5809 5806 5803 5801 5798 5795 5792 5789 5786 5783 5780
5873 5871 5869 5868 5866 5865 5863 5861 5860 5857 5855 5854 5851 5849 5847 5845 5843 5840 5838 5835 5833 5830 5828 5825 5822 5820 5817 5814 5811 5808 5806 5804 5801 5798 5796 5793 5790 5787 5784 5781 5778 5775 5772
5868 5865 5864 5862 5861 5859 5857 5855 5853 5851 5849 5847 5845 5843 5840 5838 5836 5833 5831 5828 5825 5823 5820 5818 5815 5812 5810 5807 5804 5801 5799 5796 5794 5790 5787 5784 5782 5779 5775 5773 5770 5767 5764
5862 5860 5858 5856 5855 5853 5851 5849 5847 5845 5842 5840 5838 5835 5833 5831 5829 5827 5824 5820 5818 5816 5813 5810 5808 5805 5802 5800 5797 5794 5791 5789 5786 5782 5779 5776 5773 5770 5767 5764 5761 5759 5756
5857 5855 5852 5851 5849 5847 5845 5843 5841 5838 5835 5833 5831 5828 5826 5824 5822 5819 5816 5814 5811 5808 5805 5803 5800 5798 5795 5792 5789 5786 5783 5780 5777 5774 5771 5768 5765 5762 5759 5756 5753 5750 5747
5850 5848 5846 5844 5842 5840 5838 5836 5833 5831 5828 5826 5824 5821 5819 5817 5814 5812 5809 5806 5803 5800 5798 5795 5793 5790 5787 5784 5781 5778 5775 5772 5769 5766 5763 5760 5757 5754 5751 5748 5745 5742 5739
5843 5841 5839 5837 5835 5833 5830 5828 5826 5823 5821 5818 5816 5814 5811 5809 5807 5804 5801 5798 5795 5792 5790 5787 5785 5782 5779 5776 5773 5770 5767 5765 5762 5759 5756 5752 5749 5747 5744 5741 5738 5735 5732
5836 5834 5832 5830 5828 5825 5823 5820 5818 5815 5813 5810 5808 5805 5803 5801 5798 5795 5792 5790 5787 5784 5781 5779 5776 5774 5771 5768 5765 5762 5759 5757 5753 5750 5748 5745 5742 5739 5737 5734 5731 5728 5725
5829 5827 5824 5822 5819 5817 5814 5811 5809 5806 5804 5802 5799 5797 5794 5792 5789 5786 5784 5781 5778 5775 5773 5770 5767 5765 5762 5760 5757 5754 5751 5748 5746 5742 5740 5737 5735 5732 5730 5727 5725 5722 5719
5821 5819 5816 5813 5810 5807 5805 5802 5800 5797 5795 5792 5790 5787 5785 5782 5780 5777 5774 5772 5769 5767 5764 5761 5759 5756 5753 5750 5748 5745 5743 5740 5737 5734 5732 5729 5727 5724 5722 5720 5717 5714 5712